Location: Borkenes
(68.7830°N, 16.1830°E)
Time: 04:10:16
(UTC+01:00)

Altair - Visible Passes

Search period start: 14 December 2019 00:00
Search period end: 24 December 2019 00:00
Orbit: 1502 x 1682 km, 47.2° (Epoch: 12 December)

Date Brightness Start Highest point End Pass type
(mag) Time Alt. Az. Time Alt. Az. Time Alt. Az.
17 Dec 9.3 19:10:10 10° SSE 19:10:44 11° SSE 19:10:44 11° SSE visible
18 Dec 9.2 18:45:38 10° SSE 18:47:07 11° SSE 18:47:07 11° SSE visible
18 Dec 9.3 20:44:23 10° SSW 20:45:09 12° SSW 20:45:09 12° SSW visible
19 Dec 9.2 18:21:10 10° SSE 18:23:28 11° SE 18:23:28 11° SE visible
19 Dec 9.2 20:19:28 10° SSW 20:21:30 14° SSW 20:21:30 14° SSW visible
20 Dec 9.2 17:56:52 10° SSE 17:58:55 11° SE 17:59:48 11° SE visible
20 Dec 9.0 19:54:34 10° SSW 19:57:49 16° S 19:57:49 16° S visible
21 Dec 9.2 17:32:58 10° SE 17:34:01 10° SE 17:35:03 10° SE visible
21 Dec 9.0 19:29:40 10° SSW 19:34:07 17° S 19:34:07 17° S visible
21 Dec 9.4 21:31:08 10° SW 21:32:09 12° SW 21:32:09 12° SW visible
22 Dec 8.9 19:04:47 10° SSW 19:10:24 17° SSE 19:10:24 17° SSE visible
22 Dec 9.2 21:06:06 10° SW 21:08:25 15° SW 21:08:25 15° SW visible
23 Dec 8.9 18:39:56 10° SSW 18:45:26 17° SSE 18:46:39 17° SSE visible
23 Dec 9.1 20:41:04 10° SW 20:44:40 17° SSW 20:44:40 17° SSW visible
